Location: Newark
(43.4306°N, 0.3089°E)
Time: 16:31:41
(UTC+00:00)

S-56A Canister/Altair - Pass Details

Date: 24 August 2019
Orbit: 633 x 2499 km, 38.9° (Epoch: 17 September)

Event Time Altitude Azimuth Distance (km) Brightness Sun altitude
Rises 23:05:29 0° 266° (W) 2,980 - -34.2°
Reaches altitude 10° 23:07:53 10° 260° (W) 2,018 - -34.3°
Maximum altitude 23:12:07 46° 187° (S) 866 - -34.5°
Drops below altitude 10° 23:16:45 10° 114° (ESE) 2,203 - -34.7°
Sets 23:19:28 0° 108° (ESE) 3,291 - -34.8°
